SCP
0 1 1 1 0 0 0 1 1 2 2 2 1 1 1 1 1 1 1 1 1 1 0 0 0 0 0 0 0 0 0 0 0 0 0 0 0 0 0 0 0 0 0
0 0 0 0 0 0 1 1 1 1 2 2 1 1 1 1 1 1 1 1 1 1 1 0 0 0 0 0 0 0 0 0 0 0 0 0 0 0 0 0 0 0 0
0 0 0 0 0 0 1 1 1 1 2 2 1 1 1 1 1 1 1 1 1 1 1 1 0 0 0 0 0 1 0 0 0 0 0 0 0 0 0 0 0 0 0
0 0 0 0 0 0 1 1 2 1 1 1 1 1 1 1 1 1 1 1 1 1 1 1 0 0 0 0 0 1 0 0 0 0 0 0 0 0 0 0 0 0 0
0 0 0 0 0 0 0 1 1 1 1 1 1 1 0 0 0 0 1 1 1 1 1 1 0 0 0 0 0 0 0 0 0 0 0 0 0 0 0 0 0 0 0
0 0 0 0 0 0 0 0 0 1 1 1 1 1 0 0 0 0 0 0 1 1 1 1 0 0 0 0 0 0 0 0 0 0 0 0 0 0 0 0 0 0 0
0 0 0 0 0 0 0 0 0 0 1 1 1 0 0 0 0 0 0 0 0 1 0 0 0 0 0 0 0 0 0 0 0 0 0 0 0 0 0 0 0 0 0
0 0 0 0 0 0 0 0 0 0 0 0 0 0 0 0 0 0 0 0 0 0 0 0 0 0 0 0 0 0 0 0 0 0 0 0 0 0 0 0 0 0 0
0 0 0 0 0 0 0 0 0 0 0 0 0 0 0 0 0 0 0 0 0 0 0 0 0 0 0 0 0 0 0 0 0 0 0 0 0 0 0 0 0 0 0
0 0 0 0 0 0 0 0 0 0 0 0 0 0 0 0 0 0 0 0 0 0 0 0 0 0 0 0 0 0 0 0 0 0 0 0 0 0 0 0 0 0 0
0 0 0 0 0 0 0 0 0 0 0 0 0 0 0 0 0 0 0 0 0 0 0 0 0 0 0 0 0 0 0 0 0 0 0 0 0 0 0 0 0 0 0
0 0 0 0 0 0 0 0 0 0 0 0 0 0 0 0 0 0 0 0 0 0 0 0 0 0 0 0 0 0 0 0 0 0 0 0 0 0 0 0 0 0 0
0 0 0 0 0 0 0 0 0 0 0 0 0 0 0 0 0 0 0 0 0 0 0 0 0 0 0 0 0 0 0 0 0 0 0 0 0 0 0 0 0 0 0
0 0 0 0 0 0 0 0 0 0 0 0 0 0 0 0 0 0 0 0 0 0 0 0 0 0 0 0 0 0 0 0 0 0 0 0 0 0 0 0 0 0 0
0 0 0 0 0 0 0 0 0 0 0 0 0 0 0 0 0 0 0 0 0 0 0 0 0 0 0 0 0 0 0 0 0 0 0 0 0 0 0 0 0 0 0
0 0 0 0 0 0 0 0 0 0 0 0 0 0 0 0 0 0 0 0 0 0 0 0 0 0 0 0 0 0 0 0 0 0 0 0 0 0 0 0 0 0 0
0 0 0 0 0 0 0 0 0 0 0 0 0 0 0 0 0 0 0 0 0 0 0 0 0 0 0 0 0 0 0 0 0 0 0 0 0 0 0 0 0 0 0
0 0 0 0 0 0 0 0 0 0 0 0 0 0 0 0 0 0 0 0 0 0 0 0 0 0 0 0 0 0 0 0 0 0 0 0 0 0 0 0 0 0 0
0 0 0 0 0 0 0 0 0 0 0 0 0 0 0 0 0 0 0 0 0 0 0 0 0 0 0 0 0 0 0 0 0 0 0 0 0 0 0 0 0 0 0
0 0 0 0 0 0 0 0 0 0 0 0 0 0 0 0 0 0 0 0 0 0 0 0 0 0 0 0 0 0 0 0 0 0 0 0 0 0 0 0 0 0 0
0 0 0 0 0 0 0 0 0 0 0 0 0 0 0 0 0 0 0 0 0 0 0 0 0 0 0 0 0 0 0 0 0 0 0 0 0 0 0 0 0 0 0
0 0 0 0 0 0 0 0 0 0 0 0 0 0 0 0 0 0 0 0 0 0 0 0 0 0 0 0 0 0 0 0 0 0 0 0 0 0 0 0 0 0 0
0 0 0 0 0 0 0 0 0 0 0 0 0 0 0 0 0 0 0 0 0 0 0 0 0 0 0 0 0 0 0 0 0 0 0 0 0 0 0 0 0 0 0
0 0 0 0 0 0 0 0 0 0 0 0 0 0 0 0 0 0 0 0 0 0 0 0 0 0 0 0 0 0 0 0 0 0 0 0 0 0 0 0 0 0 0
0 0 0 0 0 0 0 0 0 0 0 0 0 0 0 0 0 0 0 0 0 0 0 0 0 0 0 0 0 0 0 0 0 0 0 0 0 0 0 0 0 0 0
0 0 0 0 0 0 0 0 0 0 0 0 0 0 0 0 0 0 0 0 0 0 0 0 0 0 0 0 0 0 0 0 0 0 0 0 0 0 0 0 0 0 0
Wind_Speed
5 5 4 5 5 5 6 8 8 8 9 10 10 11 12 12 12 12 12 11 13 12 11 12 13 10 8 7 7 6 7 7 10 6 3 3 5 5 4 5 5 5 6
5 4 4 4 4 5 6 7 7 8 9 10 10 11 12 12 12 13 13 12 13 13 13 12 12 9 10 8 7 8 8 8 8 9 4 3 5 6 5 5 4 4 4
4 4 4 4 5 6 7 7 7 7 7 8 8 10 11 12 12 13 13 12 13 13 12 12 12 11 12 9 9 8 7 7 6 6 6 3 3 3 3 3 3 3 4
4 4 5 5 5 6 6 6 6 6 7 7 8 9 10 10 11 11 12 12 12 12 11 11 11 11 12 11 9 9 7 7 6 6 5 3 3 3 3 4 3 3 4
4 4 5 5 5 5 6 5 5 5 6 7 7 7 7 7 8 10 10 11 11 10 9 9 10 10 11 9 7 7 8 7 6 6 5 4 4 4 5 4 5 3 3
5 5 5 5 5 5 5 4 4 5 5 5 6 6 7 6 8 9 10 9 9 9 8 8 8 9 10 11 11 10 9 9 8 7 6 6 7 6 5 4 4 3 4
5 5 5 6 5 5 4 4 4 4 4 4 5 6 6 6 7 8 9 8 8 8 8 7 5 6 8 7 8 9 9 10 10 8 8 8 7 7 7 6 5 5 4
5 5 6 6 6 5 4 4 4 3 3 4 4 5 5 5 6 6 7 7 5 5 6 6 6 5 6 6 6 6 6 6 7 7 7 7 5 5 7 7 6 3 1
5 6 6 6 5 5 5 5 4 3 3 3 3 4 4 4 4 4 4 4 4 4 4 4 5 5 7 7 6 6 5 3 3 5 4 4 4 6 6 5 4 3 2
6 6 5 5 4 4 4 5 4 3 3 3 3 3 4 4 3 4 4 3 3 3 3 3 5 6 7 8 6 6 5 4 2 3 3 3 3 4 6 5 6 5 3
6 6 5 5 4 4 4 3 4 3 3 3 3 3 3 3 3 3 4 3 3 3 3 3 3 6 7 8 7 5 6 4 4 4 3 3 2 2 2 1 3 4 4
6 5 5 5 4 3 3 4 4 3 3 3 2 2 2 2 2 2 3 3 2 3 3 3 3 6 6 7 5 5 6 6 4 4 3 3 2 2 1 1 1 1 2
5 5 5 5 4 3 3 4 3 3 2 2 2 2 2 1 1 2 2 2 2 2 2 3 4 6 6 5 5 6 6 4 4 3 3 2 2 2 2 2 2 2 2
5 5 4 4 4 4 3 3 3 3 2 2 2 2 2 2 1 0 0 1 1 0 1 2 3 4 4 4 4 3 2 3 4 3 3 2 2 2 2 2 2 2 1
5 4 4 4 4 4 4 3 3 3 3 3 3 2 2 2 2 3 1 0 1 1 2 1 1 2 3 2 2 2 3 3 3 3 4 3 3 3 2 1 2 2 1
5 4 3 3 3 3 3 4 5 5 7 6 5 4 3 3 3 2 2 1 2 4 3 2 2 2 3 3 3 3 3 3 3 3 3 3 3 3 2 2 2 2 2
5 4 4 3 3 3 3 3 4 5 6 6 6 6 5 4 3 2 2 2 3 4 2 2 2 2 2 3 3 3 3 3 3 3 3 3 3 3 3 2 2 1 1
4 4 4 3 3 3 3 3 3 3 4 4 5 6 6 4 3 2 3 3 2 2 1 1 1 2 2 2 3 3 3 3 3 3 3 3 3 3 3 2 2 2 1
4 3 3 3 3 3 3 3 2 3 3 3 3 4 5 4 4 4 4 2 1 1 1 1 1 1 2 2 2 3 3 3 3 3 3 3 3 3 3 2 2 2 1
4 5 5 3 3 3 2 2 2 2 3 3 3 3 3 3 2 2 2 1 1 0 0 1 1 1 2 2 2 3 3 3 4 3 3 3 3 3 3 3 2 2 2
3 4 5 3 2 2 2 2 2 2 2 2 2 3 4 2 1 1 1 1 0 0 0 1 1 1 2 2 2 3 4 3 3 3 3 3 3 3 2 2 2 2 2
3 3 2 3 3 2 2 2 2 2 2 2 2 3 5 2 1 1 1 1 1 1 0 1 1 1 2 2 3 3 3 4 4 4 3 3 3 3 3 2 2 2 2
2 2 2 2 2 3 3 2 2 2 2 2 2 2 2 2 1 1 1 1 1 1 1 0 1 0 1 1 2 2 3 4 4 4 4 4 3 3 3 3 3 3 2
2 2 2 2 2 2 2 2 2 2 2 2 2 2 2 2 1 1 1 1 1 1 1 0 0 1 1 1 1 1 2 3 4 4 6 5 4 3 3 3 3 3 3
2 2 2 2 2 2 2 2 2 2 2 2 2 2 2 1 1 1 1 1 1 1 1 1 0 1 1 1 1 1 3 3 4 4 4 4 5 4 4 4 3 3 2
2 2 2 2 2 2 2 2 2 2 2 2 2 2 1 1 1 1 1 1 1 1 1 1 0 0 1 1 2 3 3 4 5 6 4 4 4 4 4 3 4 3 3
Wind_Direction
275 266 266 260 250 240 236 237 236 231 223 222 222 224 221 220 219 220 225 221 223 226 224 224 229 226 225 226 224 224 227 224 243 251 210 201 197 205 209 210 215 217 222
284 282 279 275 271 254 246 242 240 237 229 224 225 227 225 222 219 221 225 222 223 226 226 225 229 226 227 225 223 224 227 225 229 244 237 203 207 204 203 205 212 214 219
292 289 288 285 278 264 254 250 241 239 238 228 224 228 228 225 222 221 222 222 223 225 226 226 228 224 227 225 224 225 226 227 225 231 237 217 206 189 191 208 211 220 226
304 300 293 283 279 275 263 253 248 244 240 236 231 230 230 229 227 224 221 223 224 226 227 227 227 224 228 225 224 225 221 223 223 222 228 219 206 180 177 200 216 214 226
313 310 298 293 289 289 277 265 260 254 247 238 235 234 231 229 232 230 222 222 223 225 227 227 227 226 227 225 223 221 215 219 220 217 220 215 208 188 201 192 209 210 232
319 309 310 306 303 297 284 275 269 267 260 247 238 234 235 238 242 234 226 220 220 220 224 226 225 222 221 220 222 220 215 215 220 217 217 217 218 209 193 187 191 192 232
316 317 321 315 308 303 303 297 279 272 270 259 247 239 241 247 246 233 225 220 218 218 218 218 220 222 218 218 219 218 217 215 212 215 217 219 214 205 188 192 197 200 215
316 319 321 319 314 314 315 308 302 292 279 269 265 256 250 255 246 233 222 222 222 219 217 216 214 215 213 207 208 215 222 222 218 219 222 222 216 197 191 192 190 176 150
317 316 315 316 314 317 315 311 308 306 294 280 273 263 256 267 252 225 216 216 220 221 217 212 214 215 210 194 194 205 215 229 216 203 202 189 178 174 163 147 150 155 202
309 307 310 313 312 311 313 311 309 303 293 289 282 273 260 266 260 229 213 209 213 219 214 211 215 214 199 187 192 195 208 213 182 161 142 123 138 156 161 174 173 171 170
308 312 318 323 319 314 316 311 309 308 304 295 287 288 278 274 256 227 217 212 207 208 206 209 213 203 194 188 191 197 200 176 167 158 147 133 122 131 140 148 168 169 173
313 319 325 326 325 328 321 317 318 315 306 302 304 309 306 295 276 241 229 229 218 206 212 208 202 187 185 184 188 181 155 138 140 142 141 147 151 148 134 115 118 129 156
318 321 323 329 332 330 322 319 319 316 310 311 319 314 318 332 308 292 260 238 235 221 211 195 181 173 172 176 172 160 145 141 142 144 159 163 151 144 131 110 82 81 65
317 319 324 330 329 331 328 322 317 313 314 313 316 318 320 329 331 314 239 232 245 211 131 145 154 150 139 133 139 147 144 146 145 150 148 133 121 123 134 142 137 124 104
316 316 321 324 323 326 329 325 315 308 306 301 294 291 298 302 310 317 314 250 195 169 130 99 102 119 123 121 116 120 123 125 122 122 130 130 130 128 128 117 124 131 145
317 319 318 317 320 321 323 332 345 332 334 329 323 316 308 313 324 336 348 350 141 145 132 135 141 147 149 148 142 134 131 135 134 135 138 141 144 144 137 127 134 147 155
311 313 315 316 319 322 321 321 326 340 347 345 341 338 337 337 348 360 48 92 118 124 119 143 151 153 150 147 147 146 148 146 141 142 146 148 147 147 149 150 152 150 157
311 309 309 306 311 312 313 316 317 320 329 337 345 348 353 358 8 32 78 81 78 61 82 128 141 141 143 148 150 146 144 142 141 144 147 149 151 154 157 160 165 166 177
311 308 308 308 311 312 312 312 315 317 314 318 329 345 359 5 20 45 56 59 100 80 77 106 135 140 145 149 149 152 156 156 151 151 154 155 157 157 162 168 171 180 176
306 309 314 310 310 312 311 311 314 314 314 318 324 329 345 6 21 23 27 37 64 67 99 132 132 138 150 155 156 155 153 154 157 161 160 161 163 165 168 171 174 181 199
308 308 314 314 307 304 302 301 300 301 306 312 312 325 346 357 0 2 7 17 17 233 184 156 150 153 156 155 158 160 161 165 167 166 162 164 167 167 170 172 180 186 190
307 305 307 306 309 311 309 303 303 305 310 314 321 339 355 360 357 355 352 351 347 335 281 158 163 170 172 173 171 170 170 172 173 170 169 169 169 166 165 169 175 179 179
310 312 315 317 316 317 323 320 318 315 312 318 323 329 341 344 338 348 360 2 11 18 27 77 130 132 144 157 173 180 182 186 181 173 168 167 167 167 166 168 174 177 186
310 310 312 315 316 315 317 320 323 320 319 320 321 322 326 332 343 2 5 7 14 14 17 43 136 163 169 166 171 183 188 181 171 170 169 167 168 168 167 170 176 182 183
321 315 312 311 311 314 316 318 320 318 317 318 322 321 325 335 350 359 2 13 18 16 13 15 75 150 172 184 189 187 176 174 168 159 159 159 163 166 166 166 166 164 164
321 318 314 312 312 312 310 310 313 313 310 313 314 312 315 323 333 341 1 17 20 13 358 358 43 155 171 182 173 172 168 157 148 146 145 145 146 150 151 151 154 155 154